星链-2451 (STARLINK-2451 )

导读

STARLINK-2451是美国SpaceX公司星链(Starlink)互联网星座中的一颗卫星,于北京时间2021年4月7日8点发射升空。星链项目旨在通过近地轨道卫星组网,为全球尤其偏远地区提供高速低延迟宽带互联网服务。作为SpaceX大规模星座部署中的一员,该卫星加入了持续扩容的星链网络,助力实现全球覆盖的卫星互联网接入目标。

Basic Information
目录编号:
48114
目录名称:
STARLINK-2451
国际标识:
2021-027Y
轨道中心:
EARTH
卫星名称:
星链-2451
卫星全名:
星链-2451 (STARLINK-2451 )
卫星状态:
已陨落 最后检测时间 2024-01-11
发射日期:
2021-04-07 UTC
国别 :
美国 (US)
星等 :
--
Orbit Information
数据来源 国际轨道数据
星历时间: 2024-01-12T01:29:28+0800
轨道信息已过期884天
半长轴: 6532.452km
偏心率: 0.0011513
轨道倾角: 52.986°
近地点辐角 186.668°
升交点赤经 16.163°
平近点角 321.222°
近地点: 146.796km
远地点: 161.838km
周期: 87.574分钟
每日圈数: 16.443279
Detailed Information
固有亮度:
5
最大亮度:
2.5
卫星平台:
Starlink V1.0
覆盖范围:
全球
运营商:
太空探索技术公司
运营商所在国:
美国
制造商(研发单位):
太空探索技术公司
制造商所在国:
美国
使用方式:
暂无
Satellite Introduction
星链(Starlink)计划是由太空探索技术公司(SpaceX)提出的一个巨型低轨卫星互联网星座项目,计划在2019年至2024年间在太空搭建由约1.2万颗卫星组成的“星链”网络,其中1584颗将部署在地球上空550千米处的近地轨道,并从2020年开始工作。该卫星已陨落。